Terminal Aerodrome Forecast
Issued by NWS Grand Junction, CO

Home | Current Version | Previous Version | Text Only | Print | Product List | Glossary On
Versions: 1 2 3 4 5 6 7 8 9 10 11 12 13 14 15 16 17 18 19 20 21 22 23 24 25
000
FTUS45 KGJT 210520
TAFGJT
TAF
KGJT 210520Z 2106/2206 11009KT P6SM SCT070 BKN120
     FM211200 13012KT P6SM VCSH SCT050 BKN080
     FM211700 17010KT P6SM SCT110 SCT180
     FM220100 14012KT P6SM VCSH SCT050 BKN080=

USA.gov is the U.S. government's official web portal to all federal, state and local government web resources and services.